Location: Sungai Buloh
(3.1000°N, 113.0000°E)
Time: 17:19:43
(UTC+00:00)

DELTA 2 R/B (1) - Pass Details

Date: 12 January 2026
Orbit: 786 x 800 km, 39.6° (Epoch: 10 February)

Event Time Altitude Azimuth Distance (km) Brightness Sun altitude
Exits shadow 20:27:20 58° 117° (ESE) 915 4.0 -31.1°
Drops below altitude 10° 20:31:46 10° 129° (SE) 2,348 6.9 -30.0°
Sets 20:34:15 0° 130° (SE) 3,281 7.8 -29.5°
